When you browse on this site, cookies collect data to enhance your experience and personalize the content and advertising you see.
Visit our Privacy Policy to learn more. By continuing to use the site, you agree to this use of cookies and data.
  • In United Kingdom
  • List of Countries
  • For 7 days
  • Water Temperature
  • Satellite Maps
  • Weather Map
  • Weather Widgets
  • user-avatar
    Login

    Hourly Weather Matanzas

    Today, 26 April, Friday

    Time Temperature Precipitation Wind Pressure Humidity
    00:00 +25°C° 0 mm 2 mps 756 mmHg 84%
    01:00 +25°C° 0 mm 3 mps 756 mmHg 89%
    02:00 +24°C° 0 mm 2 mps 756 mmHg 90%
    03:00 +24°C° 0 mm 2 mps 756 mmHg 92%
    04:00 +24°C° 0 mm 2 mps 756 mmHg 94%
    05:00 +24°C° 0 mm 2 mps 756 mmHg 92%
    06:00 +25°C° 0 mm 2 mps 756 mmHg 90%
    07:00 +25°C° 0 mm 2 mps 756 mmHg 88%
    08:00 +28°C° 0 mm 2 mps 756 mmHg 74%
    09:00 +30°C° 0 mm 3 mps 756 mmHg 60%
    10:00 +33°C° 0 mm 3 mps 756 mmHg 46%
    11:00 +35°C° 0 mm 3 mps 756 mmHg 41%
    12:00 +36°C° 0 mm 4 mps 756 mmHg 37%
    13:00 +37°C° 0 mm 4 mps 756 mmHg 32%
    14:00 +37°C° 0 mm 4 mps 755 mmHg 35%
    15:00 +36°C° 0 mm 4 mps 755 mmHg 38%
    16:00 +35°C° 0 mm 4 mps 755 mmHg 40%
    17:00 +34°C° 0.1 mm 3 mps 755 mmHg 48%
    18:00 +31°C° 0.1 mm 3 mps 755 mmHg 56%
    19:00 +29°C° 0.1 mm 2 mps 755 mmHg 64%
    20:00 +28°C° 0.6 mm 2 mps 755 mmHg 70%
    21:00 +27°C° 0.6 mm 2 mps 756 mmHg 77%
    22:00 +27°C° 0.6 mm 2 mps 756 mmHg 83%
    23:00 +26°C° 0.1 mm 2 mps 756 mmHg 84%

    Tomorrow, 27 April, Saturday

    Time Temperature Precipitation Wind Pressure Humidity
    00:00 +26°C° 0.1 mm 1 mps 756 mmHg 85%
    01:00 +26°C° 0.1 mm 1 mps 756 mmHg 86%
    02:00 +26°C° 0 mm 1 mps 755 mmHg 86%
    03:00 +25°C° 0 mm 1 mps 755 mmHg 86%
    04:00 +23°C° 0 mm 0 mps 755 mmHg 86%
    05:00 +24°C° 0 mm 0 mps 755 mmHg 84%
    06:00 +24°C° 0 mm 0 mps 755 mmHg 82%
    07:00 +24°C° 0 mm 0 mps 756 mmHg 80%
    08:00 +26°C° 0 mm 0 mps 756 mmHg 71%
    09:00 +30°C° 0 mm 1 mps 756 mmHg 62%
    10:00 +32°C° 0 mm 1 mps 756 mmHg 53%
    11:00 +32°C° 0.8 mm 1 mps 756 mmHg 52%
    12:00 +34°C° 0.8 mm 2 mps 756 mmHg 52%
    13:00 +34°C° 0.8 mm 3 mps 756 mmHg 52%
    14:00 +33°C° 1.5 mm 3 mps 755 mmHg 55%
    15:00 +31°C° 1.5 mm 3 mps 755 mmHg 59%
    16:00 +31°C° 1.5 mm 3 mps 754 mmHg 62%
    17:00 +30°C° 1.3 mm 3 mps 754 mmHg 68%
    18:00 +28°C° 1.3 mm 2 mps 755 mmHg 73%
    19:00 +27°C° 1.3 mm 2 mps 755 mmHg 79%
    20:00 +27°C° 0.5 mm 2 mps 755 mmHg 80%
    21:00 +27°C° 0.5 mm 2 mps 756 mmHg 81%
    22:00 +26°C° 0.5 mm 2 mps 756 mmHg 81%
    23:00 +26°C° 0 mm 2 mps 756 mmHg 82%

    Day after tomorrow, 28 April, Sunday

    Time Temperature Precipitation Wind Pressure Humidity
    00:00 +26°C° 0 mm 2 mps 756 mmHg 83%
    01:00 +25°C° 0 mm 2 mps 755 mmHg 84%
    02:00 +25°C° 0 mm 2 mps 755 mmHg 85%
    03:00 +25°C° 0 mm 2 mps 755 mmHg 85%
    04:00 +25°C° 0 mm 2 mps 755 mmHg 86%
    05:00 +25°C° 0 mm 2 mps 755 mmHg 85%
    06:00 +26°C° 0 mm 2 mps 755 mmHg 83%
    07:00 +26°C° 0 mm 2 mps 756 mmHg 81%
    08:00 +28°C° 0 mm 2 mps 756 mmHg 73%
    09:00 +30°C° 0 mm 2 mps 757 mmHg 64%
    10:00 +33°C° 0 mm 3 mps 757 mmHg 56%
    11:00 +33°C° 0.6 mm 3 mps 757 mmHg 54%
    12:00 +34°C° 0.6 mm 4 mps 757 mmHg 53%
    13:00 +35°C° 0.6 mm 4 mps 757 mmHg 51%
    14:00 +33°C° 1.3 mm 5 mps 756 mmHg 56%
    15:00 +32°C° 1.3 mm 5 mps 755 mmHg 61%
    16:00 +30°C° 1.3 mm 5 mps 755 mmHg 66%
    17:00 +29°C° 1.1 mm 5 mps 755 mmHg 70%
    18:00 +28°C° 1.1 mm 4 mps 755 mmHg 74%
    19:00 +27°C° 1.1 mm 4 mps 755 mmHg 78%
    20:00 +27°C° 0.3 mm 4 mps 756 mmHg 79%
    21:00 +26°C° 0.3 mm 3 mps 756 mmHg 80%
    22:00 +26°C° 0.3 mm 3 mps 757 mmHg 82%
    23:00 +26°C° 0.1 mm 3 mps 757 mmHg 82%

    29 April, Monday

    Time Temperature Precipitation Wind Pressure Humidity
    00:00 +26°C° 0.1 mm 3 mps 757 mmHg 83%
    01:00 +26°C° 0.1 mm 3 mps 756 mmHg 83%
    02:00 +25°C° 0.4 mm 3 mps 756 mmHg 83%
    03:00 +25°C° 0.4 mm 3 mps 756 mmHg 83%
    04:00 +25°C° 0.4 mm 2 mps 756 mmHg 83%
    05:00 +25°C° 0 mm 2 mps 756 mmHg 81%
    06:00 +26°C° 0 mm 3 mps 757 mmHg 79%
    07:00 +26°C° 0 mm 3 mps 757 mmHg 77%
    08:00 +28°C° 0 mm 3 mps 757 mmHg 69%
    09:00 +30°C° 0 mm 4 mps 758 mmHg 60%
    10:00 +33°C° 0 mm 4 mps 758 mmHg 52%
    11:00 +34°C° 0 mm 5 mps 758 mmHg 50%
    12:00 +34°C° 0 mm 5 mps 758 mmHg 48%
    13:00 +35°C° 0 mm 6 mps 758 mmHg 46%
    14:00 +34°C° 0 mm 6 mps 757 mmHg 49%
    15:00 +34°C° 0 mm 6 mps 757 mmHg 52%
    16:00 +33°C° 0 mm 7 mps 756 mmHg 56%
    17:00 +32°C° 0.1 mm 6 mps 756 mmHg 62%
    18:00 +29°C° 0.1 mm 6 mps 757 mmHg 68%
    19:00 +28°C° 0.1 mm 5 mps 757 mmHg 74%
    20:00 +27°C° 0.1 mm 6 mps 757 mmHg 77%
    21:00 +27°C° 0.1 mm 6 mps 758 mmHg 80%
    22:00 +27°C° 0.1 mm 6 mps 758 mmHg 83%
    23:00 +26°C° 0 mm 5 mps 758 mmHg 84%

    30 April, Tuesday

    Time Temperature Precipitation Wind Pressure Humidity
    00:00 +26°C° 0 mm 5 mps 758 mmHg 85%
    01:00 +26°C° 0 mm 4 mps 758 mmHg 86%
    02:00 +26°C° 0 mm 4 mps 758 mmHg 87%
    03:00 +26°C° 0 mm 4 mps 757 mmHg 88%
    04:00 +25°C° 0 mm 4 mps 757 mmHg 88%
    05:00 +26°C° 0 mm 4 mps 758 mmHg 86%
    06:00 +26°C° 0 mm 4 mps 758 mmHg 85%
    07:00 +27°C° 0 mm 5 mps 758 mmHg 83%
    08:00 +28°C° 0 mm 5 mps 759 mmHg 74%
    09:00 +30°C° 0 mm 5 mps 759 mmHg 65%
    10:00 +33°C° 0 mm 6 mps 759 mmHg 57%
    11:00 +33°C° 0 mm 6 mps 759 mmHg 54%
    12:00 +34°C° 0 mm 6 mps 758 mmHg 51%
    13:00 +35°C° 0 mm 7 mps 758 mmHg 48%
    14:00 +35°C° 0.1 mm 7 mps 758 mmHg 50%
    15:00 +34°C° 0.1 mm 8 mps 757 mmHg 53%
    16:00 +33°C° 0.1 mm 8 mps 757 mmHg 55%
    17:00 +32°C° 0 mm 8 mps 757 mmHg 60%
    18:00 +31°C° 0 mm 8 mps 757 mmHg 65%
    19:00 +28°C° 0 mm 7 mps 758 mmHg 70%
    20:00 +28°C° 0 mm 7 mps 758 mmHg 73%
    21:00 +27°C° 0 mm 6 mps 759 mmHg 75%
    22:00 +27°C° 0 mm 6 mps 759 mmHg 78%
    23:00 +27°C° 0 mm 6 mps 759 mmHg 79%

    1 May, Wednesday

    Time Temperature Precipitation Wind Pressure Humidity
    00:00 +26°C° 0 mm 6 mps 758 mmHg 80%
    01:00 +26°C° 0 mm 5 mps 758 mmHg 81%
    02:00 +26°C° 0 mm 5 mps 758 mmHg 82%
    03:00 +26°C° 0 mm 5 mps 758 mmHg 83%
    04:00 +26°C° 0 mm 5 mps 758 mmHg 83%
    05:00 +26°C° 0 mm 5 mps 758 mmHg 82%
    06:00 +26°C° 0 mm 5 mps 758 mmHg 80%
    07:00 +27°C° 0 mm 5 mps 759 mmHg 79%
    08:00 +28°C° 0 mm 5 mps 759 mmHg 71%
    09:00 +30°C° 0 mm 6 mps 759 mmHg 63%
    10:00 +33°C° 0 mm 6 mps 760 mmHg 55%
    11:00 +33°C° 0 mm 6 mps 759 mmHg 53%
    12:00 +34°C° 0 mm 7 mps 759 mmHg 51%
    13:00 +35°C° 0 mm 7 mps 759 mmHg 49%
    14:00 +34°C° 0.1 mm 7 mps 758 mmHg 50%
    15:00 +34°C° 0.1 mm 8 mps 758 mmHg 50%
    16:00 +34°C° 0.1 mm 8 mps 758 mmHg 51%
    17:00 +32°C° 0 mm 8 mps 758 mmHg 57%
    18:00 +31°C° 0 mm 8 mps 758 mmHg 62%
    19:00 +28°C° 0 mm 7 mps 758 mmHg 67%
    20:00 +28°C° 0 mm 7 mps 758 mmHg 70%
    21:00 +27°C° 0 mm 7 mps 759 mmHg 73%
    22:00 +27°C° 0 mm 6 mps 759 mmHg 76%
    23:00 +27°C° 0 mm 6 mps 759 mmHg 77%
    Show more